Zurück zum Katalog

THORAD DELTA 1 DEB

AktivLEO
NORAD 18693·DEBRIS·🇺🇸 United States

Gestartet Nov 15, 1974 von Vandenberg Space Force Base

Loading…

Nächste Überflüge (nächste 24 Stunden)

TLE

AlterndSource: Space-Track

Epoche: Sep 12, 2026, 09:41 UTC

1 18693U 74089FA  26255.40390200 -.00001204  00000-0 -35937-2 0  9991
2 18693 101.6393 213.2501 0197252 288.9382 225.2959 12.98114350792547

Verfolge THORAD DELTA 1 DEB in Echtzeit mit AllMySat

Download on the App Store